Wind_Speed
7 7 8 8 8 7 9 10 10 10 10 9 8 7 7 6 6 6 4 3 2 0 2 3 4 4 3 2 4 6 14 3 6 5 7 5 2 9 4 4 9 10 10 9 9
7 7 6 7 6 6 8 9 10 10 9 8 7 7 7 7 7 6 5 3 2 0 2 3 5 5 3 1 4 8 6 9 11 5 4 6 1 12 8 11 8 7 11 13 11
6 4 6 6 4 5 7 9 10 9 9 8 8 8 7 6 6 6 6 3 2 2 3 4 5 5 3 2 3 12 2 20 9 7 4 4 7 6 7 8 13 15 19 14 12
4 5 4 3 2 4 7 9 9 9 9 9 9 8 6 4 5 6 5 4 3 3 4 5 5 3 3 3 2 6 10 8 9 7 5 2 6 9 8 4 11 9 18 23 14
4 3 3 2 3 5 7 9 9 9 10 9 8 6 3 4 4 6 6 5 4 5 5 5 4 2 2 4 5 4 9 7 9 9 8 8 6 6 8 10 12 13 16 27 17
4 3 4 4 5 7 8 8 9 9 9 7 5 4 4 3 3 5 5 4 5 4 5 5 4 3 3 4 4 9 8 7 6 8 9 8 8 13 5 14 8 22 10 24 20
5 4 6 5 6 7 8 8 8 7 7 6 5 5 5 4 4 4 4 3 4 4 4 3 2 3 2 3 4 6 4 9 9 6 12 12 17 13 15 19 17 10 20 22 20
7 6 6 7 7 7 7 7 8 7 7 7 6 6 5 4 5 5 5 4 3 3 4 4 3 3 3 4 5 5 4 5 17 30 23 11 4 24 32 27 21 15 17 22 27
7 6 6 6 7 7 8 8 7 7 6 6 6 5 5 5 5 5 5 5 5 6 6 5 4 4 4 5 6 10 6 8 12 21 21 12 10 25 35 28 25 22 19 21 27
7 6 6 6 7 7 8 8 7 7 7 6 6 6 5 4 5 5 7 7 7 6 4 4 3 6 7 1 8 9 9 11 14 21 24 12 14 24 24 23 25 25 26 31 38
7 8 9 8 7 7 7 6 6 6 6 7 7 7 6 6 7 8 8 6 5 5 4 6 8 9 17 10 10 19 8 9 14 24 16 13 19 22 22 23 23 23 25 29 30
7 9 8 8 8 8 8 8 7 7 7 8 8 8 8 9 8 6 5 5 5 1 3 9 10 9 12 11 11 9 5 11 12 18 21 17 18 19 25 24 22 23 27 25 28
10 10 9 7 6 6 5 5 5 6 7 8 8 8 7 5 5 5 6 4 2 2 2 13 22 13 10 9 4 11 14 14 16 20 19 17 20 24 37 32 28 25 26 32 25
11 11 9 8 6 6 5 4 4 5 6 6 6 6 5 6 6 6 5 3 3 5 5 9 14 10 7 10 9 3 23 20 23 23 21 18 17 20 33 43 42 30 28 31 30
10 10 9 8 7 6 5 5 4 3 4 6 6 6 7 7 7 6 6 6 6 7 1 19 16 7 5 17 15 18 22 25 24 23 21 18 5 18 18 30 11 32 33 32 32
11 10 9 8 8 8 8 7 6 4 11 7 6 6 7 6 7 8 8 7 8 8 8 16 13 15 18 19 22 23 22 24 19 16 17 15 19 17 32 32 45 41 35 33 33
10 10 9 8 8 8 8 8 7 4 12 9 6 5 4 9 10 10 10 9 3 3 4 12 10 25 20 19 15 22 25 23 13 12 10 22 30 28 40 36 38 36 33 33 35
13 14 13 11 10 10 10 10 10 15 9 9 8 8 6 12 12 11 12 8 15 11 10 11 15 22 27 25 26 24 24 20 21 19 20 22 24 32 32 43 41 31 34 35 36
16 15 15 14 13 12 11 11 10 15 10 10 9 7 9 14 11 13 13 15 18 17 15 17 14 24 30 22 27 26 21 26 27 17 17 14 24 32 29 42 13 37 37 36 37
16 15 14 14 13 13 13 16 14 14 13 12 9 13 9 11 14 15 14 23 20 20 19 21 22 20 30 31 27 31 33 17 15 21 18 17 24 37 36 34 53 49 36 37 38
15 14 13 13 12 12 13 16 14 14 14 14 16 16 15 17 18 13 17 28 25 24 23 27 27 24 27 22 32 31 21 33 32 23 19 20 21 40 39 39 41 41 38 39 42
15 15 13 13 13 14 17 14 15 16 16 16 16 17 18 19 17 14 19 32 28 28 28 34 30 31 30 32 34 31 29 31 31 27 24 26 27 38 39 35 37 38 39 41 38
16 16 16 16 16 16 16 18 18 19 19 19 20 20 21 24 25 26 28 34 32 33 33 36 33 34 27 27 27 28 27 28 28 31 25 22 31 34 29 37 38 38 38 36 38
19 19 18 18 18 19 20 23 24 23 25 25 25 25 27 26 29 29 30 38 33 35 36 34 31 30 27 24 27 26 26 23 28 28 23 21 32 36 39 41 35 33 35 38 38
22 21 22 24 23 25 26 27 29 32 30 31 31 30 30 30 27 22 30 40 37 37 37 36 32 31 30 30 30 24 24 26 30 26 23 21 32 33 29 31 32 35 37 37 39
26 26 27 28 28 29 32 34 33 35 31 37 32 33 32 33 34 31 33 37 32 34 36 32 30 30 29 26 21 22 26 26 28 28 26 25 25 27 29 29 35 33 36 37 40
31 31 32 32 32 32 37 32 33 32 30 30 27 27 29 24 27 27 29 30 30 29 26 25 24 23 20 19 19 18 22 22 27 26 23 27 23 25 29 31 30 33 37 36 37
Wind_Direction
266 278 294 286 279 256 236 225 218 214 211 204 201 203 204 199 194 201 196 163 105 111 277 283 293 295 307 11 54 95 113 233 228 105 276 303 37 289 329 324 295 302 284 302 295
272 285 284 287 283 255 226 211 205 198 194 194 191 191 187 185 196 198 176 149 126 252 275 283 295 294 290 298 81 113 102 200 224 233 182 285 233 274 312 325 291 267 281 302 289
271 257 274 278 271 232 203 192 187 183 184 183 177 172 176 199 213 190 180 177 190 261 305 330 315 298 288 238 117 116 173 234 254 249 237 227 269 265 308 246 312 303 294 286 287
209 253 251 241 235 196 180 177 177 177 176 168 165 165 178 209 214 201 203 205 233 289 314 327 329 320 288 255 200 175 215 239 246 269 291 280 229 276 298 194 235 289 265 294 281
218 235 192 169 164 158 162 169 170 167 164 167 170 178 209 250 238 220 224 231 269 295 303 309 310 305 258 236 245 171 258 265 280 291 298 288 289 269 279 298 288 273 249 282 286
204 184 168 151 139 145 157 164 163 164 171 180 185 216 244 229 198 214 224 247 286 299 306 303 305 266 240 240 246 260 241 272 287 280 294 308 290 286 310 260 266 284 246 275 282
189 174 172 162 150 151 157 162 168 174 183 191 206 217 218 211 212 220 238 262 282 293 295 294 311 290 271 276 292 305 318 285 290 289 278 329 345 274 269 291 290 251 287 267 273
186 176 178 182 172 170 172 178 184 189 195 202 210 216 221 216 224 228 233 240 251 275 272 268 270 278 289 291 291 313 282 238 256 287 292 319 299 264 281 289 288 270 267 274 281
181 183 179 184 190 192 194 196 199 202 205 203 209 216 224 233 243 250 243 242 254 264 274 276 292 316 317 336 337 293 241 272 275 290 298 298 221 272 278 287 283 282 274 271 267
199 197 197 198 194 194 198 200 199 197 199 203 210 223 229 245 253 260 267 276 276 262 277 312 332 15 10 348 258 217 257 260 269 261 283 283 271 277 298 293 289 281 272 259 257
213 223 223 218 212 210 214 215 215 215 216 225 232 242 251 256 262 268 274 272 274 292 344 354 57 190 226 260 245 230 252 255 262 275 305 296 300 294 300 296 289 286 277 270 275
220 227 226 224 225 228 232 234 240 246 250 254 258 260 265 273 276 273 270 276 295 317 349 27 244 273 272 277 268 267 292 264 294 309 317 313 299 294 303 297 287 277 273 279 273
220 227 226 223 222 227 230 237 243 252 261 263 267 269 264 262 262 269 281 282 287 304 228 174 245 292 293 298 305 303 279 282 293 296 315 304 309 276 289 301 300 287 281 286 278
224 227 230 228 224 227 231 240 250 261 268 263 269 267 263 261 277 280 278 265 261 240 257 243 280 285 299 289 282 314 280 299 305 309 307 288 301 282 279 305 301 291 286 287 286
223 228 227 227 229 231 229 235 239 234 117 277 275 274 271 271 277 268 261 260 243 267 287 247 276 295 286 270 295 270 295 300 310 310 317 316 245 307 299 272 269 305 298 294 292
224 227 225 219 222 225 229 231 232 230 259 269 273 282 282 282 279 275 272 272 280 280 271 275 282 275 281 297 297 294 298 311 340 317 315 271 283 292 274 267 274 289 293 293 293
232 233 232 218 220 224 224 227 221 161 262 267 271 270 268 276 278 280 285 289 265 317 270 305 289 296 301 296 282 291 309 319 311 298 288 295 297 275 262 263 278 291 294 295 295
239 242 243 239 228 228 227 225 220 223 234 249 250 248 229 254 270 279 287 301 290 261 257 275 292 287 287 301 300 312 311 327 300 304 292 313 271 278 294 297 285 293 303 300 300
245 241 243 242 237 234 230 230 234 238 247 248 258 247 271 280 256 282 276 237 265 272 267 255 261 294 291 302 305 305 309 301 304 336 311 303 303 291 290 306 273 304 306 302 300
241 241 237 238 236 236 236 240 252 248 245 244 229 245 211 265 280 293 270 280 273 276 280 277 285 290 296 311 315 318 316 313 304 296 297 291 287 278 283 284 294 305 309 304 304
234 233 231 233 236 234 236 249 253 252 251 248 242 248 237 243 254 246 259 265 276 283 286 284 293 293 299 293 307 307 293 287 300 301 290 300 285 279 284 290 298 301 306 310 312
232 234 233 238 241 242 246 255 255 259 260 262 261 260 260 257 260 255 258 262 289 288 287 289 296 296 303 292 302 302 298 300 296 298 293 302 302 293 293 307 305 308 308 310 310
243 244 246 246 248 251 258 262 264 266 267 267 266 269 271 269 269 271 262 280 282 284 284 290 295 300 300 308 306 301 280 296 295 299 300 298 283 297 296 299 301 304 305 308 312
249 251 251 252 256 262 265 266 270 270 272 272 272 272 271 270 272 268 278 277 280 282 285 289 293 294 296 285 289 289 296 297 296 299 300 286 276 276 291 300 303 302 307 311 312
252 252 255 259 262 265 267 270 271 272 273 273 274 270 272 270 273 275 272 282 285 283 286 287 295 296 297 298 298 294 297 291 299 296 286 284 278 298 301 305 308 309 312 313 314
259 262 262 262 263 264 265 267 269 272 270 272 270 276 271 267 268 265 268 282 285 289 296 299 301 298 301 302 303 286 291 301 309 302 297 288 300 298 302 304 305 310 311 315 317
259 261 261 263 262 262 264 270 266 267 267 268 269 270 268 277 274 277 280 283 285 290 291 295 298 301 307 306 307 297 305 300 292 304 299 288 292 292 300 301 308 312 313 317 316
Height
5881 5879 5879 5879 5879 5878 5880 5881 5882 5883 5886 5888 5889 5890 5892 5893 5893 5895 5896 5897 5897 5897 5898 5898 5898 5897 5898 5899 5901 5903 5907 5915 5912 5912 5909 5904 5904 5902 5901 5901 5897 5896 5895 5893 5890
5879 5878 5878 5878 5877 5878 5879 5880 5882 5884 5886 5887 5889 5891 5892 5892 5894 5895 5896 5896 5897 5897 5897 5897 5896 5897 5898 5900 5901 5903 5911 5912 5908 5907 5909 5907 5904 5905 5900 5898 5899 5894 5891 5889 5888
5877 5878 5878 5877 5877 5878 5879 5880 5882 5883 5885 5887 5889 5890 5891 5892 5894 5894 5895 5896 5897 5897 5896 5896 5896 5897 5898 5899 5901 5903 5911 5906 5904 5902 5902 5903 5904 5901 5900 5900 5897 5896 5889 5887 5886
5878 5878 5877 5877 5877 5878 5879 5880 5881 5883 5885 5887 5889 5890 5891 5892 5895 5894 5895 5896 5897 5896 5896 5896 5896 5897 5898 5899 5900 5901 5902 5901 5901 5900 5900 5901 5903 5901 5898 5900 5892 5896 5888 5885 5884
5878 5878 5877 5877 5878 5878 5879 5880 5882 5884 5886 5888 5890 5891 5892 5893 5893 5894 5895 5896 5896 5896 5896 5896 5896 5897 5898 5898 5899 5899 5901 5899 5898 5897 5897 5898 5898 5899 5900 5897 5895 5896 5891 5883 5880
5878 5878 5878 5878 5878 5879 5880 5881 5883 5885 5887 5888 5890 5891 5892 5892 5892 5893 5894 5895 5895 5896 5895 5896 5896 5896 5896 5897 5898 5898 5898 5898 5897 5896 5895 5895 5899 5894 5896 5892 5893 5889 5890 5880 5877
5878 5878 5878 5878 5879 5880 5881 5882 5884 5885 5887 5889 5890 5890 5891 5892 5892 5893 5894 5894 5894 5895 5895 5895 5895 5896 5896 5896 5897 5896 5896 5898 5897 5896 5895 5894 5893 5893 5888 5888 5886 5888 5884 5883 5875
5878 5878 5878 5879 5880 5881 5882 5883 5885 5886 5887 5888 5889 5890 5891 5892 5892 5893 5893 5893 5893 5894 5894 5895 5895 5895 5894 5895 5895 5894 5895 5900 5897 5893 5891 5893 5898 5889 5884 5883 5883 5883 5884 5881 5877
5877 5878 5878 5879 5881 5882 5883 5885 5886 5887 5888 5889 5890 5890 5891 5891 5892 5892 5893 5893 5893 5893 5894 5894 5894 5894 5894 5894 5896 5896 5899 5903 5900 5890 5889 5890 5891 5885 5878 5879 5876 5876 5878 5879 5873
5877 5877 5879 5880 5882 5883 5884 5885 5886 5887 5888 5888 5889 5891 5891 5891 5891 5891 5892 5892 5892 5893 5893 5893 5893 5893 5897 5900 5902 5902 5900 5900 5896 5891 5884 5887 5885 5878 5875 5872 5870 5869 5870 5869 5859
5876 5878 5879 5881 5882 5883 5884 5884 5886 5887 5887 5888 5889 5889 5890 5891 5891 5891 5891 5891 5891 5892 5891 5892 5893 5898 5893 5892 5893 5893 5893 5893 5891 5882 5882 5880 5877 5872 5869 5866 5864 5861 5859 5856 5854
5876 5878 5879 5881 5881 5882 5883 5884 5884 5886 5887 5887 5887 5889 5889 5890 5890 5890 5891 5891 5890 5891 5891 5894 5893 5891 5890 5889 5889 5889 5891 5890 5886 5879 5876 5875 5874 5871 5864 5860 5858 5855 5852 5851 5849
5876 5878 5879 5880 5880 5881 5882 5883 5883 5884 5885 5885 5886 5887 5888 5889 5889 5889 5890 5889 5889 5890 5891 5893 5888 5888 5887 5886 5886 5889 5884 5881 5879 5876 5874 5874 5871 5868 5856 5854 5851 5848 5846 5840 5842
5875 5877 5878 5879 5880 5880 5881 5882 5883 5884 5884 5885 5886 5887 5887 5887 5888 5887 5887 5888 5888 5889 5889 5889 5885 5885 5885 5884 5883 5887 5878 5876 5874 5872 5870 5869 5869 5865 5851 5844 5841 5839 5837 5834 5833
5874 5875 5876 5877 5878 5879 5880 5881 5882 5883 5889 5886 5885 5886 5886 5887 5886 5886 5886 5885 5886 5886 5888 5886 5883 5883 5884 5879 5879 5877 5875 5872 5870 5868 5867 5865 5864 5861 5854 5840 5817 5832 5831 5827 5824
5872 5873 5874 5876 5876 5878 5878 5880 5881 5885 5885 5884 5884 5884 5884 5884 5884 5883 5884 5884 5884 5883 5884 5880 5880 5879 5878 5877 5874 5871 5869 5868 5866 5869 5868 5858 5860 5864 5844 5840 5831 5831 5825 5821 5818
5870 5871 5872 5874 5875 5876 5877 5878 5881 5884 5884 5883 5882 5883 5884 5882 5882 5882 5881 5881 5883 5883 5882 5881 5878 5874 5875 5873 5871 5866 5864 5863 5866 5866 5868 5856 5854 5849 5835 5834 5828 5824 5820 5815 5811
5868 5869 5870 5872 5873 5874 5875 5877 5878 5879 5880 5880 5881 5881 5883 5881 5880 5880 5879 5880 5877 5879 5882 5883 5881 5872 5866 5868 5865 5863 5861 5860 5856 5857 5856 5853 5847 5834 5828 5826 5820 5820 5815 5809 5805
5864 5865 5867 5868 5870 5871 5873 5875 5877 5875 5876 5877 5878 5880 5881 5879 5879 5877 5877 5878 5874 5874 5875 5874 5876 5868 5862 5864 5860 5859 5858 5855 5850 5850 5851 5851 5838 5834 5825 5813 5805 5813 5808 5802 5797
5860 5862 5863 5864 5866 5868 5870 5870 5871 5871 5873 5873 5876 5877 5882 5881 5876 5877 5875 5870 5868 5869 5869 5867 5866 5865 5859 5856 5852 5850 5848 5848 5848 5844 5843 5845 5839 5827 5823 5816 5801 5798 5802 5795 5789
5857 5858 5860 5861 5863 5865 5866 5866 5867 5868 5869 5870 5871 5872 5873 5873 5872 5876 5874 5865 5864 5862 5863 5860 5860 5861 5857 5854 5850 5849 5848 5840 5838 5837 5836 5834 5833 5816 5816 5812 5802 5796 5792 5785 5781
5853 5855 5857 5858 5861 5861 5862 5863 5864 5864 5865 5866 5866 5867 5867 5866 5867 5869 5867 5858 5857 5856 5856 5851 5853 5851 5852 5846 5843 5841 5838 5833 5830 5829 5826 5823 5822 5809 5805 5802 5795 5790 5785 5779 5774
5850 5851 5853 5855 5856 5857 5858 5859 5859 5860 5860 5861 5861 5862 5861 5860 5860 5858 5856 5852 5851 5850 5849 5845 5847 5844 5845 5842 5835 5834 5832 5828 5823 5820 5819 5819 5811 5806 5793 5796 5789 5782 5778 5772 5767
5846 5847 5849 5850 5851 5852 5853 5853 5853 5854 5854 5855 5855 5856 5855 5855 5853 5852 5849 5844 5845 5843 5841 5841 5841 5838 5836 5836 5832 5827 5824 5822 5816 5813 5814 5815 5806 5798 5792 5786 5782 5777 5771 5765 5759
5840 5842 5843 5844 5846 5846 5846 5847 5846 5845 5847 5847 5847 5848 5848 5848 5847 5847 5843 5837 5837 5836 5834 5833 5832 5829 5828 5826 5823 5822 5820 5816 5809 5806 5806 5803 5794 5790 5786 5780 5775 5769 5764 5758 5752
5833 5835 5837 5838 5839 5840 5839 5838 5839 5837 5840 5836 5840 5838 5840 5839 5839 5838 5836 5832 5832 5828 5825 5825 5824 5822 5820 5818 5817 5817 5812 5806 5804 5799 5796 5792 5788 5784 5780 5775 5770 5765 5759 5753 5745
5826 5827 5828 5829 5830 5832 5828 5830 5830 5830 5831 5830 5831 5831 5829 5831 5830 5830 5828 5826 5825 5823 5821 5819 5817 5816 5814 5812 5810 5809 5806 5802 5798 5794 5790 5787 5784 5779 5775 5770 5765 5759 5753 5747 5740